FW0135 Weather Reports


Display with metric or nautical units.
time (UTC)temp
F
wind
direction
speed
MPH
gust
MPH
rain 1hr
in
rain 24hr
in
rain mn
in
humidity
%
barometer
mb
20260506205437 62 185 0.0 1.0 0.02 0.14 0.14 91 990.3
20260506204931 62 185 0.0 1.0 0.03 0.14 0.14 91 990.4
20260506204424 62 185 0.0 1.0 0.04 0.14 0.14 91 990.3
20260506203918 62 172 0.0 1.0 0.05 0.14 0.14 91 990.4
20260506203413 62 172 0.0 3.0 0.05 0.14 0.14 91 990.4
20260506202401 62 62 0.0 2.0 0.07 0.14 0.14 91 990.5
20260506201854 62 62 0.0 3.0 0.06 0.13 0.13 91 990.6
20260506200843 62 57 0.0 3.0 0.06 0.13 0.13 91 990.5
20260506195831 62 200 0.0 1.0 0.05 0.12 0.12 91 990.6
20260506195324 62 200 0.0 0.0 0.04 0.11 0.11 91 990.6
20260506194819 62 200 0.0 0.0 0.04 0.11 0.11 90 990.7
20260506194312 62 200 0.0 0.0 0.04 0.10 0.10 90 990.8
20260506192801 62 200 0.0 1.0 0.03 0.08 0.08 90 990.9
20260506192257 62 200 0.0 1.0 0.02 0.07 0.07 90 991.0
20260506191755 62 200 0.0 1.0 0.02 0.07 0.07 90 991.0
20260506190756 62 200 0.0 1.0 0.03 0.07 0.07 90 990.9
20260506190257 62 200 0.0 1.0 0.03 0.07 0.07 90 990.8
20260506185756 62 200 0.0 1.0 0.04 0.07 0.07 90 990.8
20260506185256 62 200 0.0 1.0 0.04 0.07 0.07 89 991.0
20260506184756 62 200 0.0 1.0 0.05 0.07 0.07 89 991.3
20260506184257 62 200 0.0 1.0 0.04 0.06 0.06 89 991.4
20260506183752 62 200 0.0 1.0 0.04 0.06 0.06 89 991.5
20260506182752 62 200 0.0 1.0 0.04 0.05 0.05 88 991.9
20260506182253 62 200 0.0 1.0 0.05 0.05 0.05 88 992.0
20260506181752 62 200 0.0 1.0 0.05 0.05 0.05 88 992.0
20260506181251 62 200 0.0 1.0 0.04 0.04 0.04 88 992.0
20260506180753 62 200 0.0 2.0 0.04 0.04 0.04 87 992.0
20260506180253 63 200 0.0 2.0 0.04 0.04 0.04 87 992.1
20260506175753 63 200 0.0 0.0 0.03 0.03 0.03 87 992.1
20260506174752 63 200 0.0 1.0 0.02 0.02 0.03 86 992.4
20260506174249 64 200 0.0 1.0 0.02 0.02 0.02 85 992.4
20260506173752 64 200 0.0 0.0 0.02 0.02 0.02 85 992.4
20260506173247 64 200 0.0 0.0 0.01 0.01 0.01 84 992.5
20260506172746 65 200 0.0 1.0 0.01 0.01 0.01 83 992.4
20260506172247 65 200 0.0 2.0 0.00 0.00 0.00 82 992.4
20260506171745 66 200 0.0 2.0 0.00 0.00 0.00 81 992.3
20260506171244 66 200 0.0 2.0 0.00 0.00 0.00 80 992.3
20260506170245 67 248 0.0 2.0 0.00 0.00 0.00 77 992.3
20260506165241 68 230 0.0 2.0 0.00 0.00 0.00 74 992.1
20260506164741 68 230 1.0 3.0 0.00 0.00 0.00 73 992.1
20260506163231 69 225 0.0 2.0 0.00 0.00 0.00 71 992.2
20260506162725 69 225 0.0 2.0 0.00 0.00 0.00 72 992.3
20260506162219 69 225 1.0 3.0 0.00 0.00 0.00 72 992.4
20260506161207 68 288 1.0 3.0 0.00 0.00 0.00 72 992.6
20260506160701 68 211 1.0 5.0 0.00 0.00 0.00 74 992.6
20260506160155 68 290 0.0 5.0 0.00 0.00 0.00 74 992.6
20260506155649 68 249 0.0 2.0 0.00 0.00 0.00 75 992.7
20260506155142 67 249 1.0 2.0 0.00 0.00 0.00 75 992.9
20260506154637 67 249 1.0 2.0 0.00 0.00 0.00 75 993.0
20260506154130 67 194 1.0 3.0 0.00 0.00 0.00 74 993.1
20260506153625 68 74 1.0 3.0 0.00 0.00 0.00 75 993.2
20260506153119 68 284 0.0 3.0 0.00 0.00 0.00 74 993.2
20260506152612 68 284 1.0 3.0 0.00 0.00 0.00 74 993.3
20260506151601 67 282 0.0 2.0 0.00 0.00 0.00 75 993.4
20260506151055 67 282 0.0 2.0 0.00 0.00 0.00 75 993.4
20260506150549 67 282 0.0 2.0 0.00 0.00 0.00 76 993.4
20260506150043 67 282 0.0 2.0 0.00 0.00 0.00 75 993.3
20260506145537 67 282 0.0 2.0 0.00 0.00 0.00 75 993.3
20260506145031 67 294 0.0 2.0 0.00 0.00 0.00 75 993.2
20260506144525 67 294 0.0 2.0 0.00 0.00 0.00 76 993.2
20260506144019 67 294 0.0 4.0 0.00 0.00 0.00 75 993.4
20260506143513 67 294 1.0 4.0 0.00 0.00 0.00 74 993.5
20260506143007 67 280 1.0 3.0 0.00 0.00 0.00 74 993.4
20260506142501 67 280 0.0 2.0 0.00 0.00 0.00 75 993.3
20260506141954 67 247 0.0 0.0 0.00 0.00 0.00 76 993.1
20260506141449 67 247 0.0 0.0 0.00 0.00 0.00 77 993.2
20260506140942 67 246 0.0 0.0 0.00 0.00 0.00 77 993.2
20260506140437 66 94 0.0 0.0 0.00 0.00 0.00 78 993.2
20260506135931 65 94 0.0 0.0 0.00 0.00 0.00 80 993.2
20260506135425 65 94 0.0 0.0 0.00 0.00 0.00 81 993.1
20260506134919 64 93 0.0 0.0 0.00 0.00 0.00 82 993.1
20260506134413 64 105 0.0 0.0 0.00 0.00 0.00 82 993.2
20260506133907 63 105 0.0 0.0 0.00 0.00 0.00 83 993.3
20260506133401 63 105 0.0 0.0 0.00 0.00 0.00 83 993.3
20260506131843 63 107 0.0 0.0 0.00 0.00 0.00 83 993.6
20260506130831 62 107 0.0 0.0 0.00 0.00 0.00 83 993.9
20260506130325 62 107 0.0 0.0 0.00 0.00 0.00 83 993.9
20260506125819 62 107 0.0 0.0 0.00 0.00 0.00 83 993.8
20260506125312 62 107 0.0 0.0 0.00 0.00 0.00 83 993.8
20260506124812 62 107 0.0 0.0 0.00 0.00 0.00 83 993.8
20260506124308 62 107 0.0 0.0 0.00 0.00 0.00 83 993.8
20260506123807 62 107 0.0 0.0 0.00 0.00 0.00 83 993.9
20260506122807 61 107 0.0 0.0 0.00 0.00 0.00 85 993.8
20260506122306 61 107 0.0 0.0 0.00 0.00 0.00 85 993.6
20260506121806 60 107 0.0 0.0 0.00 0.00 0.00 85 993.7
20260506121306 60 107 0.0 0.0 0.00 0.00 0.00 85 993.8
20260506120306 60 107 0.0 0.0 0.00 0.00 0.00 86 993.9
20260506115804 59 107 0.0 0.0 0.00 0.00 0.00 86 993.8
20260506115306 59 107 0.0 0.0 0.00 0.00 0.00 86 994.0
20260506114800 59 107 0.0 0.0 0.00 0.00 0.00 87 994.0
20260506114256 58 107 0.0 0.0 0.00 0.00 0.00 87 994.0
20260506113757 58 107 0.0 0.0 0.00 0.00 0.00 87 994.0
20260506113254 58 107 0.0 0.0 0.00 0.00 0.00 87 994.1
20260506112757 57 107 0.0 0.0 0.00 0.00 0.00 87 994.1
20260506112252 57 107 0.0 0.0 0.00 0.00 0.00 88 994.1
20260506111250 56 107 0.0 0.0 0.00 0.00 0.00 88 994.2
20260506110750 56 107 0.0 0.0 0.00 0.00 0.00 87 994.1
20260506105750 56 107 0.0 0.0 0.00 0.00 0.00 87 994.1
20260506105252 56 107 0.0 0.0 0.00 0.00 0.00 87 994.0
20260506104751 56 107 0.0 0.0 0.00 0.00 0.00 87 994.0
20260506104252 55 107 0.0 0.0 0.00 0.00 0.00 87 994.0
20260506103751 55 107 0.0 0.0 0.00 0.00 0.00 87 994.2
20260506103251 55 107 0.0 0.0 0.00 0.00 0.00 87 994.2
20260506102750 55 107 0.0 0.0 0.00 0.00 0.00 87 994.0
20260506102250 55 107 0.0 0.0 0.00 0.00 0.00 87 994.2
20260506101750 55 107 0.0 0.0 0.00 0.00 0.00 87 994.2
20260506101251 55 107 0.0 0.0 0.00 0.00 0.00 87 993.9
20260506100750 55 107 0.0 0.0 0.00 0.00 0.00 87 993.9
20260506100252 55 107 0.0 0.0 0.00 0.00 0.00 87 994.0
20260506095748 55 107 0.0 0.0 0.00 0.00 0.00 87 994.1
20260506095243 55 107 0.0 0.0 0.00 0.00 0.00 87 994.0
20260506094736 55 107 0.0 0.0 0.00 0.00 0.00 86 993.8
20260506093725 55 107 0.0 0.0 0.00 0.00 0.00 86 993.9
20260506093219 55 107 0.0 0.0 0.00 0.00 0.00 86 994.0
20260506092713 55 107 0.0 0.0 0.00 0.00 0.00 86 993.9
20260506092207 55 107 0.0 0.0 0.00 0.00 0.00 86 993.9
20260506091700 55 107 0.0 0.0 0.00 0.00 0.00 86 994.0
20260506091155 55 107 0.0 0.0 0.00 0.00 0.00 86 993.9
20260506085637 56 107 0.0 0.0 0.00 0.00 0.00 85 994.1
20260506085131 56 107 0.0 0.0 0.00 0.00 0.00 85 994.0
20260506084625 56 107 0.0 0.0 0.00 0.00 0.00 85 994.0
20260506084118 56 107 0.0 0.0 0.00 0.00 0.00 85 993.9
20260506083613 56 107 0.0 0.0 0.00 0.00 0.00 85 994.0
20260506082601 57 107 0.0 0.0 0.00 0.00 0.00 84 994.0
20260506081549 57 107 0.0 0.0 0.00 0.00 0.00 84 994.1
20260506081043 57 107 0.0 0.0 0.00 0.00 0.00 84 994.1
20260506080537 57 107 0.0 0.0 0.00 0.00 0.00 84 994.1
20260506073501 58 107 0.0 0.0 0.00 0.00 0.00 83 994.0
20260506072449 59 107 0.0 0.0 0.00 0.00 0.00 83 994.0
20260506071943 59 107 0.0 0.0 0.00 0.00 0.00 83 994.0
20260506070425 59 107 0.0 0.0 0.00 0.00 0.00 82 994.0
20260506062336 60 107 0.0 0.0 0.00 0.00 0.00 80 993.7
20260506061830 60 107 0.0 0.0 0.00 0.00 0.00 80 993.7
20260506061325 60 107 0.0 1.0 0.00 0.00 0.00 80 993.8
20260506060818 60 107 0.0 1.0 0.00 0.00 0.00 80 993.7
20260506060313 60 107 0.0 0.0 0.00 0.00 0.00 80 993.6
20260506051212 61 82 0.0 0.0 0.00 0.00 0.00 79 993.8
20260506050706 61 82 0.0 0.0 0.00 0.00 0.00 79 993.7
20260506050200 61 82 0.0 0.0 0.00 0.00 0.00 79 993.7
20260506044642 61 82 0.0 0.0 0.00 0.00 0.00 80 994.0
20260506044137 61 82 0.0 0.0 0.00 0.00 0.00 79 993.9
20260506043630 62 82 0.0 0.0 0.00 0.00 0.00 80 993.9
20260506043125 62 82 0.0 0.0 0.00 0.00 0.00 80 993.9
20260506042618 62 82 0.0 0.0 0.00 0.00 0.00 80 993.9
20260506042112 62 82 0.0 0.0 0.00 0.00 0.00 81 994.1
20260506041101 62 82 0.0 0.0 0.00 0.00 0.00 81 993.9
20260506040555 62 82 0.0 0.0 0.00 0.00 0.00 81 993.9
20260506040049 62 82 0.0 0.0 0.00 0.00 0.00 81 994.0
20260506035544 62 82 0.0 0.0 0.00 0.00 0.00 81 994.0
20260506035038 62 82 0.0 0.0 0.00 0.00 0.00 81 993.8
20260506034026 62 82 0.0 0.0 0.00 0.00 0.00 81 993.8
20260506033520 62 82 0.0 0.0 0.00 0.00 0.00 81 993.6
20260506032508 62 82 0.0 0.0 0.00 0.00 0.00 82 993.7
20260506032002 62 82 0.0 0.0 0.00 0.00 0.00 82 993.6
20260506031455 62 78 0.0 0.0 0.00 0.00 0.00 82 993.6
20260506030949 62 78 0.0 0.0 0.00 0.00 0.00 83 993.8
20260506030447 62 78 0.0 0.0 0.00 0.00 0.00 83 993.8
20260506025946 62 78 0.0 0.0 0.00 0.00 0.00 83 993.8
20260506025447 62 78 0.0 0.0 0.00 0.00 0.00 83 993.8
20260506024948 62 76 0.0 0.0 0.00 0.00 0.00 83 993.7
20260506024445 62 76 0.0 0.0 0.00 0.00 0.00 83 993.7
20260506023944 62 76 0.0 0.0 0.00 0.00 0.00 82 993.5
20260506023444 62 76 0.0 0.0 0.00 0.00 0.00 82 993.5
20260506022442 62 76 0.0 1.0 0.00 0.00 0.00 82 993.6
20260506021939 62 76 0.0 1.0 0.00 0.00 0.00 82 993.7
20260506021439 62 76 0.0 1.0 0.00 0.00 0.00 82 993.6
20260506020940 63 76 0.0 0.0 0.00 0.00 0.00 82 993.6
20260506015940 63 76 0.0 1.0 0.00 0.00 0.00 81 993.6
20260506015438 63 76 0.0 0.0 0.00 0.00 0.00 81 993.7
20260506014939 63 76 0.0 0.0 0.00 0.00 0.00 81 993.6
20260506013935 64 76 0.0 1.0 0.00 0.00 0.00 80 993.5
20260506012935 64 76 0.0 1.0 0.00 0.00 0.00 80 993.7
20260506012435 64 76 0.0 0.0 0.00 0.00 0.00 79 993.8
20260506011934 64 76 0.0 0.0 0.00 0.00 0.00 79 993.8
20260506011434 65 76 0.0 0.0 0.00 0.00 0.00 79 993.8
20260506010934 65 76 0.0 0.0 0.00 0.00 0.00 78 993.9
20260506010436 65 76 0.0 0.0 0.00 0.00 0.00 78 993.7
20260506005934 65 76 0.0 0.0 0.00 0.00 0.00 78 993.7
20260506005435 65 76 0.0 1.0 0.00 0.00 0.00 78 993.7
20260506004934 65 76 0.0 1.0 0.00 0.00 0.00 78 993.5
20260506003934 66 76 0.0 0.0 0.00 0.00 0.00 77 993.6
20260506003436 66 76 0.0 0.0 0.00 0.00 0.00 75 993.7
20260506002935 67 76 0.0 1.0 0.00 0.00 0.00 75 993.6
20260506002435 67 76 0.0 1.0 0.00 0.00 0.00 74 993.4
20260506001932 67 76 0.0 2.0 0.00 0.00 0.00 73 993.1
20260506001426 68 76 0.0 2.0 0.00 0.00 0.00 72 993.2
20260506000920 68 76 1.0 2.0 0.00 0.00 0.00 71 992.9
20260506000416 69 76 0.0 2.0 0.00 0.00 0.00 68 993.0
20260505235909 69 76 0.0 2.0 0.00 0.00 0.00 66 993.1
20260505235403 70 76 0.0 1.0 0.00 0.00 0.00 66 992.8
20260505234857 70 76 0.0 4.0 0.00 0.00 0.00 64 992.6
20260505234350 70 76 1.0 5.0 0.00 0.00 0.00 62 992.5
20260505233339 71 272 0.0 3.0 0.00 0.00 0.00 61 992.2
20260505232833 72 299 0.0 2.0 0.00 0.00 0.00 60 992.2
20260505232327 73 299 0.0 2.0 0.00 0.00 0.00 57 991.8
20260505231821 74 298 0.0 2.0 0.00 0.00 0.00 55 991.7
20260505230302 75 339 2.0 4.0 0.00 0.00 0.00 50 991.1
20260505225756 75 323 1.0 4.0 0.00 0.00 0.00 51 990.7
20260505225251 75 304 2.0 4.0 0.00 0.00 0.00 49 990.5
20260505224745 75 298 1.0 4.0 0.00 0.00 0.00 50 990.3
20260505224238 76 298 1.0 4.0 0.00 0.00 0.00 51 990.3
20260505223227 77 315 2.0 6.0 0.00 0.00 0.00 47 990.4
20260505222722 77 314 2.0 5.0 0.00 0.00 0.00 47 990.2
20260505222214 78 44 2.0 5.0 0.00 0.00 0.00 46 990.2
20260505221708 78 355 2.0 5.0 0.00 0.00 0.00 46 990.1
20260505221202 78 355 1.0 4.0 0.00 0.00 0.00 45 990.0
20260505220656 78 312 1.0 3.0 0.00 0.00 0.00 45 989.9
20260505220150 79 301 1.0 3.0 0.00 0.00 0.00 44 989.7
20260505215645 79 296 1.0 3.0 0.00 0.00 0.00 44 989.5
20260505215139 80 249 1.0 6.0 0.00 0.00 0.00 43 989.4
20260505214126 80 153 2.0 7.0 0.00 0.00 0.00 41 989.3
20260505213621 81 190 2.0 4.0 0.00 0.00 0.00 41 989.3
20260505213114 81 302 2.0 8.0 0.00 0.00 0.00 40 989.2
20260505212609 81 118 1.0 8.0 0.00 0.00 0.00 40 989.0
20260505211556 82 213 1.0 6.0 0.00 0.00 0.00 39 988.9